Location: Unspecified
(0.0000°N, 0.0000°E)
Time: 02:40:12
(UTC+00:00)

OV3-3 - Pass Details

Date: 27 September 2017
Orbit: 340 x 2255 km, 81.4° (Epoch: 13 December)

Event Time Altitude Azimuth Distance (km) Brightness Sun altitude
Rises 17:49:42 0° 338° (NNW) 4,850 11.4 0.3°
Reaches altitude 10° 17:52:38 10° 332° (NNW) 4,081 11.1 -0.4°
Maximum altitude 18:02:45 45° 264° (W) 2,708 10.5 -3.0°
Drops below altitude 10° 18:14:50 10° 197° (SSW) 4,820 11.3 -6.0°
Sets 18:18:42 0° 191° (S) 5,780 11.7 -7.0°
